Weather History for Charlevoix, MI

Change the Weather History Date:

Wednesday, May 14, 2014

  Actual Average Record
Temperature  
Mean Temperature 49 °F -  
Max Temperature 53 °F 63 °F 80 °F (2007)
Min Temperature 45 °F 43 °F 37 °F (2003)
Degree Days  
Heating Degree Days 16    
Moisture  
Dew Point 40 °F    
Average Humidity 75    
Maximum Humidity 95    
Minimum Humidity 45    
Precipitation  
Precipitation 0.00 in - - ()
Sea Level Pressure  
Sea Level Pressure 30.16 in    
Wind  
Wind Speed 4 mph (North)    
Max Wind Speed 10 mph    
Max Gust Speed 18 mph    
Visibility 10 miles    
Events      
Averages and records for this station are not official NWS values.
T = Trace of Precipitation, MM = Missing Value Source: NWS Daily Summary

Daily Weather History Graph

Daily Weather History Graph

Search for Another Location

Airport:

Trip Planner

Search our weather history database for the weather conditions in past years. The results will help you decide how hot, cold, wet, or windy it might be!

Date:

Astronomy

May. 14, 2014 Rise Set
Actual Time 6:12 AM EDT 9:03 PM EDT
Civil Twilight 5:37 AM EDT 9:37 PM EDT
Nautical Twilight 4:54 AM EDT 10:21 PM EDT
Astronomical Twilight 4:03 AM EDT 11:13 PM EDT
Moon 9:06 PM EDT (5/14) 6:12 AM EDT (5/14)
Length of Visible Light 15h 59m
Length of Day
14h 51m
Full, 100% of the Moon is Illuminated
May 14
Full
May 14
Full
May 21
Last Quarter
May 28
New
Jun 5
First Quarter

Hourly Weather History & Observations

Time (EDT) Temp. Windchill Dew Point Humidity Pressure Visibility Wind Dir Wind Speed Gust Speed Precip Events Conditions
12:14 AM 46.0 °F 43.9 °F 44.8 °F 95% 30.09 in 10.0 mi East 4.6 mph - N/A   Overcast
12:35 AM 46.4 °F 45.2 °F 45.1 °F 95% 30.09 in 10.0 mi East 3.5 mph - N/A   Overcast
12:55 AM 46.6 °F - 45.3 °F 95% 30.10 in 10.0 mi East 3.5 mph - N/A   Overcast
1:14 AM 46.8 °F - 45.0 °F 93% 30.10 in 10.0 mi Calm Calm - N/A   Overcast
1:35 AM 46.9 °F - 44.2 °F 90% 30.10 in 10.0 mi ESE 4.6 mph - N/A   Overcast
1:54 AM 47.3 °F - 43.3 °F 86% 30.10 in 10.0 mi ESE 3.5 mph - N/A   Overcast
2:15 AM 47.3 °F - 43.7 °F 87% 30.10 in 10.0 mi Calm Calm - N/A   Overcast
2:35 AM 47.5 °F - 43.9 °F 87% 30.10 in 10.0 mi SE 5.8 mph - N/A   Overcast
2:54 AM 47.7 °F - 43.2 °F 84% 30.10 in 10.0 mi SE 5.8 mph - N/A   Overcast
3:15 AM 48.2 °F - 43.7 °F 84% 30.10 in 10.0 mi SE 4.6 mph - N/A   Overcast
3:35 AM 48.2 °F - 43.2 °F 83% 30.10 in 10.0 mi SE 4.6 mph - N/A   Overcast
3:54 AM 48.2 °F - 43.3 °F 83% 30.10 in 10.0 mi SE 4.6 mph - N/A   Overcast
4:15 AM 48.2 °F - 43.9 °F 85% 30.12 in 10.0 mi Calm Calm - N/A   Overcast
4:35 AM 48.4 °F - 44.1 °F 85% 30.12 in 10.0 mi SE 3.5 mph - N/A   Overcast
4:54 AM 48.2 °F - 44.1 °F 86% 30.12 in 10.0 mi Calm Calm - N/A   Overcast
5:15 AM 47.3 °F - 43.9 °F 88% 30.13 in 10.0 mi Calm Calm - N/A   Overcast
5:34 AM 47.5 °F - 44.4 °F 89% 30.13 in 10.0 mi Calm Calm - N/A   Overcast
5:55 AM 47.3 °F - 44.6 °F 90% 30.14 in 10.0 mi Calm Calm - N/A   Overcast
6:15 AM 46.9 °F - 44.2 °F 90% 30.14 in 10.0 mi Calm Calm - N/A   Overcast
6:35 AM 47.1 °F - 44.6 °F 91% 30.14 in 10.0 mi Calm Calm - N/A   Overcast
6:55 AM 46.6 °F - 44.1 °F 91% 30.16 in 10.0 mi Calm Calm - N/A   Overcast
7:14 AM 46.6 °F - 44.1 °F 91% 30.17 in 10.0 mi West 3.5 mph - N/A   Overcast
7:35 AM 46.6 °F - 44.1 °F 91% 30.18 in 10.0 mi NW 3.5 mph - N/A   Overcast
7:55 AM 46.6 °F - 43.9 °F 90% 30.19 in 10.0 mi WNW 3.5 mph - N/A   Overcast
8:14 AM 46.6 °F - 43.5 °F 89% 30.18 in 10.0 mi West 4.6 mph - N/A   Overcast
8:35 AM 47.7 °F - 44.1 °F 87% 30.19 in 10.0 mi NW 3.5 mph - N/A   Overcast
8:55 AM 47.5 °F - 43.3 °F 86% 30.19 in 10.0 mi NW 6.9 mph - N/A   Overcast
9:14 AM 47.3 °F - 42.8 °F 84% 30.19 in 10.0 mi WNW 5.8 mph - N/A   Overcast
9:35 AM 47.7 °F - 42.3 °F 82% 30.20 in 10.0 mi NW 3.5 mph - N/A   Overcast
9:55 AM 45.7 °F 43.4 °F 40.6 °F 83% 30.20 in 10.0 mi WNW 4.6 mph - N/A   Overcast
11:15 AM 50.5 °F - 42.1 °F 73% 30.21 in 10.0 mi NNW 5.8 mph - N/A   Mostly Cloudy
11:35 AM 52.0 °F - 42.1 °F 69% 30.22 in 10.0 mi NNW 4.6 mph - N/A   Mostly Cloudy
11:54 AM 51.4 °F - 40.3 °F 66% 30.21 in 10.0 mi NNW 6.9 mph - N/A   Mostly Cloudy
12:15 PM 52.9 °F - 41.5 °F 65% 30.21 in 10.0 mi North 4.6 mph - N/A   Scattered Clouds
12:35 PM 52.7 °F - 40.3 °F 63% 30.20 in 10.0 mi NNW 5.8 mph - N/A   Clear
12:54 PM 50.5 °F - 42.8 °F 75% 30.21 in 10.0 mi NNW 5.8 mph - N/A   Scattered Clouds
1:15 PM 50.9 °F - 43.3 °F 75% 30.20 in 10.0 mi NNW 6.9 mph - N/A   Mostly Cloudy
1:35 PM 51.6 °F - 43.2 °F 73% 30.20 in 10.0 mi NNW 6.9 mph - N/A   Mostly Cloudy
1:54 PM 49.1 °F - 42.3 °F 77% 30.20 in 10.0 mi NNW 6.9 mph - N/A   Scattered Clouds
2:15 PM 48.4 °F - 42.4 °F 80% 30.20 in 10.0 mi North 5.8 mph - N/A   Clear
2:34 PM 48.2 °F - 42.3 °F 80% 30.21 in 10.0 mi NNW 5.8 mph - N/A   Clear
2:55 PM 50.4 °F - 43.3 °F 77% 30.21 in 10.0 mi North 5.8 mph - N/A   Clear
3:15 PM 46.4 °F 44.3 °F 41.5 °F 83% 30.20 in 10.0 mi NNW 4.6 mph - N/A   Clear
3:34 PM 46.2 °F 45.0 °F 41.4 °F 83% 30.20 in 10.0 mi NNW 3.5 mph - N/A   Clear
3:55 PM 47.3 °F - 42.1 °F 82% 30.19 in 10.0 mi Calm Calm - N/A   Clear
4:15 PM 47.5 °F - 41.9 °F 81% 30.18 in 10.0 mi North 3.5 mph - N/A   Clear
4:34 PM 50.2 °F - 40.3 °F 69% 30.17 in 10.0 mi NNE 3.5 mph - N/A   Clear
4:55 PM 51.4 °F - 38.5 °F 61% 30.17 in 10.0 mi Calm Calm - N/A   Clear
5:15 PM 52.2 °F - 38.7 °F 60% 30.17 in 10.0 mi Calm Calm - N/A   Clear
5:34 PM 52.2 °F - 37.8 °F 58% 30.16 in 10.0 mi Calm Calm - N/A   Scattered Clouds
5:55 PM 52.7 °F - 37.9 °F 57% 30.16 in 10.0 mi North 4.6 mph - N/A   Scattered Clouds
6:14 PM 52.7 °F - 37.9 °F 57% 30.15 in 10.0 mi North 3.5 mph - N/A   Mostly Cloudy
6:35 PM 53.6 °F - 37.2 °F 54% 30.15 in 10.0 mi NNE 5.8 mph - N/A   Overcast
6:55 PM 52.0 °F - 37.9 °F 59% 30.15 in 10.0 mi North 5.8 mph - N/A   Overcast
7:15 PM 45.9 °F 40.8 °F 35.2 °F 66% 30.15 in 10.0 mi North 10.4 mph - N/A   Overcast
7:54 PM 46.2 °F 41.2 °F 34.7 °F 64% 30.15 in 10.0 mi North 10.4 mph 18.4 mph N/A   Overcast
8:15 PM 47.3 °F - 36.0 °F 65% 30.16 in 10.0 mi NNE 9.2 mph 16.1 mph N/A   Mostly Cloudy
8:35 PM 47.5 °F - 35.6 °F 63% 30.17 in 10.0 mi NNE 10.4 mph 16.1 mph N/A   Mostly Cloudy
8:54 PM 48.4 °F - 34.7 °F 59% 30.18 in 10.0 mi NE 8.1 mph - N/A   Mostly Cloudy
9:15 PM 49.1 °F - 32.0 °F 52% 30.19 in 10.0 mi NNE 8.1 mph - N/A   Overcast
9:35 PM 48.6 °F - 32.0 °F 53% 30.19 in 10.0 mi NE 5.8 mph - N/A   Mostly Cloudy
9:54 PM 48.6 °F - 30.7 °F 50% 30.19 in 10.0 mi NE 9.2 mph - N/A   Mostly Cloudy
10:15 PM 48.4 °F - 28.9 °F 47% 30.18 in 10.0 mi NE 9.2 mph - N/A   Overcast
10:34 PM 48.2 °F - 28.8 °F 47% 30.18 in 10.0 mi ENE 8.1 mph - N/A   Overcast
10:55 PM 47.5 °F - 27.7 °F 46% 30.17 in 10.0 mi NE 8.1 mph - N/A   Overcast
11:15 PM 47.5 °F - 27.0 °F 45% 30.17 in 10.0 mi ENE 4.6 mph - N/A   Overcast
11:34 PM 46.9 °F - 29.3 °F 50% 30.15 in 10.0 mi ENE 5.8 mph - N/A   Light Drizzle
11:55 PM 46.9 °F - 29.3 °F 50% 30.15 in 10.0 mi NE 5.8 mph - N/A   Overcast